Date,TemperatureHighF,TemperatureAvgF,TemperatureLowF,DewpointHighF,DewpointAvgF,DewpointLowF,HumidityHigh,HumidityAvg,HumidityLow,PressureMaxIn,PressureMinIn,WindSpeedMaxMPH,WindSpeedAvgMPH,GustSpeedMaxMPH,PrecipitationSumIn
2013-1-1,37,32,19,28,22,10,74,66,51,29.98,29.78,23,8,23,0.00
2013-1-2,27,21,13,18,13,8,81,71,59,30.14,29.94,18,3,18,0.00
2013-1-3,25,16,5,16,8,-1,80,70,61,30.18,30.02,10,3,10,0.00
2013-1-4,35,32,29,25,22,20,79,67,59,30.00,29.86,29,13,29,0.00
2013-1-5,39,32,26,26,22,19,82,67,54,30.25,29.91,20,6,20,0.00
2013-1-6,42,33,26,30,27,22,95,78,60,30.21,29.93,15,3,15,0.00
2013-1-7,37,33,26,30,26,21,83,73,58,30.38,30.01,15,4,15,0.00
2013-1-8,44,35,25,30,27,21,85,73,56,30.39,30.28,14,4,14,0.00
2013-1-9,44,38,25,36,32,24,96,79,67,30.37,30.07,23,8,23,0.00
2013-1-10,43,39,33,34,25,23,77,58,47,30.54,30.15,18,5,18,0.00
2013-1-11,38,33,27,38,29,24,100,86,70,30.53,30.12,8,2,8,0.39
2013-1-12,44,40,36,44,40,36,100,100,100,30.15,30.09,6,0,6,0.06
2013-1-13,46,42,38,46,42,38,100,100,100,30.14,29.99,12,1,12,0.00
2013-1-14,50,44,35,50,41,26,100,89,67,30.30,29.89,14,4,14,0.00
2013-1-15,36,34,31,28,26,24,80,72,65,30.34,30.22,9,3,9,0.00
2013-1-16,33,31,29,33,30,24,100,96,69,30.22,29.81,5,0,5,0.49
2013-1-17,40,34,26,33,28,15,100,81,62,30.10,29.86,15,3,15,0.00
2013-1-18,26,22,18,16,10,3,69,59,44,30.43,30.03,17,6,17,0.00
2013-1-19,43,35,23,30,23,12,72,62,52,30.36,29.86,21,11,21,0.00
2013-1-20,49,39,26,30,24,10,76,57,34,29.99,29.59,33,14,33,0.00
2013-1-21,28,24,20,23,15,9,94,69,50,30.07,29.77,17,4,17,0.01
2013-1-22,21,17,9,19,5,-3,94,60,44,30.12,29.77,27,10,27,0.00
2013-1-23,17,10,5,1,-2,-4,71,59,43,30.17,30.07,18,7,18,0.00
2013-1-24,20,10,2,3,-1,-4,78,61,39,30.30,30.13,21,7,21,0.00
2013-1-25,21,15,8,14,5,1,90,67,48,30.37,30.03,12,2,12,0.01
2013-1-26,24,16,10,14,8,4,91,72,51,30.32,30.02,17,4,17,0.00
2013-1-27,31,20,10,12,7,3,84,58,35,30.46,30.31,15,3,15,0.00
2013-1-28,32,26,19,32,20,3,99,82,48,30.46,29.96,8,1,8,0.18
2013-1-29,38,34,31,38,34,31,100,100,99,30.14,29.95,8,2,8,0.03
2013-1-30,54,45,34,54,45,34,100,100,100,30.09,29.36,18,4,18,0.08
2013-1-31,58,44,28,58,34,13,100,72,40,29.68,29.00,37,19,37,0.66
2013-2-1,28,24,21,15,12,7,66,58,52,30.14,29.68,22,12,22,0.00
2013-2-2,28,22,17,18,12,6,89,66,40,30.24,30.03,21,8,21,0.02
2013-2-3,29,22,15,19,17,14,95,81,60,30.03,29.74,9,1,9,0.02
2013-2-4,28,23,19,20,13,7,91,66,43,29.93,29.76,25,8,25,0.00
2013-2-5,29,24,21,25,20,12,96,84,66,29.97,29.87,5,0,5,0.02
2013-2-6,36,29,22,27,20,3,97,73,40,30.32,29.90,20,4,20,0.00
2013-2-7,30,24,17,17,8,3,68,51,38,30.48,30.32,9,2,9,0.00
2013-2-8,29,27,23,29,24,16,100,89,66,30.36,29.65,18,9,18,0.56
2013-2-9,25,21,14,22,14,5,98,74,47,30.29,29.73,23,10,23,0.30
2013-2-10,35,22,12,11,4,0,68,46,23,30.43,30.30,13,3,13,0.06
2013-2-11,42,34,21,42,32,10,100,92,55,30.31,29.64,21,3,21,0.31
2013-2-12,41,37,34,39,29,25,100,73,57,29.92,29.66,24,10,24,0.00
2013-2-13,40,34,27,31,24,21,94,67,50,29.92,29.68,9,1,9,0.08
2013-2-14,41,35,27,31,27,23,98,74,51,29.98,29.70,10,2,10,0.18
2013-2-15,48,39,29,32,29,25,92,68,45,29.98,29.87,18,4,18,0.00
2013-2-16,37,30,27,31,22,15,96,73,57,29.96,29.72,15,4,15,0.05
2013-2-17,28,22,14,16,6,2,63,51,34,29.88,29.58,29,12,29,0.00
2013-2-18,32,22,12,12,7,3,67,52,36,30.18,29.88,23,9,23,0.00
2013-2-19,43,34,25,40,26,12,99,74,52,30.18,29.61,23,5,23,0.25
2013-2-20,36,28,22,32,16,9,84,60,48,29.90,29.62,25,14,25,0.00
2013-2-21,31,24,20,16,13,12,74,63,50,30.30,29.89,23,9,23,0.00
2013-2-22,37,29,20,27,20,13,84,72,55,30.39,30.25,15,2,15,0.00
2013-2-23,37,34,32,37,32,27,100,94,80,30.26,29.82,12,4,12,0.13
2013-2-24,41,36,31,39,32,24,100,89,67,29.93,29.70,15,4,15,0.00
2013-2-25,43,36,30,28,25,23,81,67,50,30.22,29.93,14,4,14,0.00
2013-2-26,42,34,27,31,26,23,92,73,52,30.28,29.99,17,5,17,0.10
2013-2-27,42,38,32,42,38,30,100,99,92,29.98,29.51,22,8,22,0.93
2013-2-28,46,39,34,42,36,33,100,87,59,29.61,29.51,10,2,10,0.00
2013-3-1,43,37,33,34,29,25,95,75,53,29.75,29.58,15,4,15,0.00
2013-3-2,37,33,27,25,24,22,82,70,61,29.75,29.65,15,5,15,0.00
2013-3-3,33,28,26,25,21,16,83,73,58,29.72,29.62,15,6,15,0.00
2013-3-4,39,31,25,23,20,18,77,65,49,29.86,29.68,23,7,23,0.00
2013-3-5,43,35,28,26,24,21,77,63,48,30.01,29.86,17,4,17,0.00
2013-3-6,39,37,35,36,29,26,90,74,64,30.00,29.91,22,10,22,0.00
2013-3-7,35,33,31,31,28,24,96,81,69,30.06,29.97,21,8,21,0.17
2013-3-8,37,33,28,30,28,24,98,84,60,30.19,29.98,15,5,15,0.47
2013-3-9,49,38,28,26,23,21,75,56,36,30.31,30.19,15,4,15,0.00
2013-3-10,50,38,27,32,28,22,87,68,44,30.38,30.25,13,4,13,0.00
2013-3-11,53,43,34,45,37,30,96,80,56,30.30,30.08,14,4,14,0.00
2013-3-12,53,49,40,53,48,36,100,98,88,30.08,29.65,18,8,18,1.05
2013-3-13,47,40,34,37,24,10,88,56,32,29.85,29.73,21,6,21,0.00
2013-3-14,36,31,26,11,6,2,35,35,35,29.88,29.79,24,11,24,0.00
2013-3-15,41,33,23,16,8,0,35,35,35,29.92,29.67,28,8,28,0.00
2013-3-16,38,33,28,27,12,4,81,45,35,29.89,29.72,17,2,17,0.00
2013-3-17,36,29,23,25,14,3,81,56,28,30.31,29.89,15,4,15,0.00
2013-3-18,34,27,18,26,10,2,92,51,31,30.42,30.08,15,4,15,0.21
2013-3-19,37,32,27,34,28,23,93,85,69,30.07,29.65,20,6,20,0.35
2013-3-20,43,32,26,23,17,10,76,55,32,29.83,29.73,26,9,26,0.00
2013-3-21,37,32,28,25,19,14,80,60,40,29.82,29.59,15,3,15,0.00
2013-3-22,38,31,22,26,21,15,78,65,52,29.82,29.68,26,8,26,0.00
2013-3-23,43,36,31,26,22,19,75,59,38,29.88,29.73,25,12,25,0.00
2013-3-24,43,36,28,26,23,20,74,61,49,29.90,29.70,16,4,16,0.00
2013-3-25,44,38,32,29,27,25,80,63,49,29.73,29.43,16,6,16,0.00
2013-3-26,47,40,34,32,28,24,77,62,44,29.84,29.57,17,4,17,0.00
2013-3-27,51,41,31,30,25,22,70,54,33,29.93,29.81,20,4,20,0.00
2013-3-28,48,41,34,36,32,26,79,69,56,30.08,29.93,16,3,16,0.00
2013-3-29,53,44,36,34,30,29,77,59,40,30.10,29.98,23,5,23,0.00
2013-3-30,56,45,35,33,27,20,81,52,26,30.13,30.00,14,3,14,0.00
2013-3-31,56,44,32,42,30,21,95,59,34,30.12,29.66,21,6,21,0.11
2013-4-1,59,45,33,46,37,16,96,74,40,29.86,29.55,23,8,23,0.07
2013-4-2,40,34,29,20,16,12,67,50,34,30.00,29.86,25,12,25,0.00
2013-4-3,44,35,29,20,17,14,64,48,31,30.26,30.00,29,11,29,0.00
2013-4-4,55,40,27,31,22,16,75,50,26,30.34,30.06,16,5,16,0.00
2013-4-5,60,46,37,32,26,19,79,48,22,30.05,29.67,16,6,16,0.00
2013-4-6,48,39,31,25,15,9,70,40,20,30.29,29.97,21,5,21,0.00
2013-4-7,54,45,34,42,33,20,90,64,38,30.29,29.95,21,7,21,0.00
2013-4-8,68,54,40,43,40,37,96,63,33,30.05,29.95,17,4,17,0.00
2013-4-9,74,62,48,50,44,39,92,55,29,29.97,29.86,30,6,30,0.00
2013-4-10,66,57,49,55,50,41,94,77,53,29.93,29.78,14,2,14,0.21
2013-4-11,57,51,45,54,44,33,95,79,56,30.07,29.78,9,4,9,0.00
2013-4-12,45,40,38,39,37,34,96,89,67,30.07,29.75,17,9,17,0.41
2013-4-13,54,46,37,40,37,35,96,74,49,29.94,29.77,13,4,13,0.06
2013-4-14,52,46,39,38,31,27,76,57,41,30.22,29.93,25,7,25,0.00
2013-4-15,59,47,36,36,32,28,79,57,38,30.36,30.22,14,4,14,0.00
2013-4-16,65,52,41,53,45,34,89,77,57,30.37,30.08,20,6,20,0.03
2013-4-17,64,56,49,53,39,32,92,57,31,30.29,30.08,15,5,15,0.01
2013-4-18,61,53,44,48,39,30,86,62,36,30.34,30.11,18,6,18,0.00
2013-4-19,73,62,52,61,57,48,96,85,64,30.11,29.62,20,7,20,0.17
2013-4-20,62,50,40,60,37,27,95,65,34,30.28,29.62,28,9,28,0.40
2013-4-21,52,42,32,28,24,20,75,51,32,30.61,30.28,14,4,14,0.00
2013-4-22,57,45,34,38,31,24,90,61,32,30.67,30.49,16,5,16,0.00
2013-4-23,48,42,35,41,36,31,94,80,72,30.51,30.12,10,5,10,0.00
2013-4-24,73,54,40,49,44,38,94,72,39,30.12,29.78,18,6,18,0.00
2013-4-25,62,54,46,52,34,25,92,51,25,30.25,29.83,21,6,21,0.00
2013-4-26,63,52,39,38,32,28,72,48,29,30.41,30.25,15,4,15,0.00
2013-4-27,68,55,42,37,31,19,66,42,17,30.42,30.23,13,4,13,0.00
2013-4-28,71,56,43,45,37,31,83,51,32,30.30,30.15,18,4,18,0.00
2013-4-29,58,54,50,48,42,34,83,65,48,30.23,30.17,13,3,13,0.00
2013-4-30,68,58,49,45,35,22,81,47,18,30.32,30.22,12,4,12,0.00
2013-5-1,71,56,42,43,34,26,70,48,21,30.46,30.32,13,3,13,0.00
2013-5-2,77,61,45,47,42,35,86,53,22,30.44,30.24,15,3,15,0.00
2013-5-3,69,58,48,45,38,33,79,48,28,30.44,30.28,14,5,14,0.00
2013-5-4,72,57,43,47,43,36,95,64,28,30.36,30.15,13,3,13,0.00
2013-5-5,70,53,39,45,40,34,96,67,27,30.29,30.14,12,3,12,0.00
2013-5-6,72,56,41,52,46,40,96,74,43,30.27,30.08,14,3,14,0.00
2013-5-7,76,62,47,56,51,46,95,70,36,30.15,30.03,15,3,15,0.00
2013-5-8,65,60,56,62,58,55,95,92,83,30.11,29.97,13,3,13,0.57
2013-5-9,64,58,54,60,56,53,96,91,75,30.00,29.84,10,1,10,0.09
2013-5-10,78,65,50,61,54,48,96,71,39,29.97,29.85,12,2,12,0.00
2013-5-11,67,63,59,64,60,55,95,90,75,29.86,29.66,21,4,21,0.35
2013-5-12,68,59,48,60,46,28,95,67,27,29.87,29.60,22,6,22,0.01
2013-5-13,55,48,41,37,33,30,80,58,39,30.08,29.87,20,7,20,0.00
2013-5-14,59,48,37,36,32,27,84,58,30,30.11,29.98,14,3,14,0.00
2013-5-15,65,52,37,53,44,32,90,76,51,30.07,29.66,17,3,17,0.05
2013-5-16,81,66,50,54,45,35,95,55,19,29.81,29.65,24,6,24,0.00
2013-5-17,69,60,52,46,42,38,73,53,33,30.19,29.81,14,4,14,0.00
2013-5-18,70,57,46,50,47,42,88,69,44,30.29,30.19,16,3,16,0.00
2013-5-19,57,55,53,56,53,49,96,93,84,30.32,30.16,10,2,10,0.27
2013-5-20,81,67,56,66,61,55,96,83,54,30.16,29.90,9,2,9,0.00
2013-5-21,88,74,60,70,64,59,95,75,46,29.95,29.75,15,3,15,0.00
2013-5-22,79,68,58,69,63,56,95,86,70,29.89,29.77,16,3,16,0.39
2013-5-23,73,67,65,70,65,63,95,93,88,29.85,29.72,12,3,12,3.68
2013-5-24,66,56,44,64,54,44,96,95,86,29.92,29.62,22,4,22,0.62
2013-5-25,48,45,43,47,44,41,96,96,84,29.94,29.85,21,7,21,0.72
2013-5-26,61,52,44,46,42,39,88,72,48,30.21,29.92,23,7,23,0.03
2013-5-27,74,59,45,47,42,38,83,56,27,30.24,30.10,13,4,13,0.00
2013-5-28,70,57,46,57,50,43,95,80,45,30.25,30.16,8,1,8,0.14
2013-5-29,81,67,57,69,62,56,96,85,64,30.17,29.97,13,2,13,0.03
2013-5-30,89,76,62,70,64,61,95,70,41,30.10,30.04,14,2,14,0.00
2013-5-31,91,78,65,70,64,54,94,67,29,30.12,29.98,14,3,14,0.00
2013-6-1,89,78,66,69,66,62,88,68,45,30.01,29.89,14,3,14,0.00
2013-6-2,86,78,69,71,67,65,90,71,52,29.91,29.73,16,6,16,0.00
2013-6-3,76,70,60,67,63,48,95,81,62,29.91,29.78,12,3,12,0.84
2013-6-4,74,62,50,52,46,43,81,60,36,30.13,29.91,14,3,14,0.00
2013-6-5,74,63,51,53,48,43,84,60,33,30.23,30.09,9,2,9,0.00
2013-6-6,69,59,50,58,53,48,96,81,59,30.19,30.06,13,2,13,0.20
2013-6-7,60,58,55,59,57,54,97,96,96,30.06,29.73,10,2,10,2.56
2013-6-8,76,64,54,65,59,54,97,85,62,30.06,29.66,14,4,14,0.72
2013-6-9,78,67,56,62,58,55,95,75,47,30.19,30.06,10,2,10,0.00
2013-6-10,70,63,59,64,60,57,96,92,79,30.19,29.91,14,2,14,1.55
2013-6-11,76,66,60,70,62,56,96,89,70,29.91,29.57,21,4,21,0.63
2013-6-12,74,65,57,59,55,52,88,72,49,29.85,29.66,18,6,18,0.00
2013-6-13,58,56,53,57,55,52,97,96,89,29.85,29.60,13,3,13,2.25
2013-6-14,71,59,51,64,56,51,97,91,65,29.87,29.61,15,3,15,0.76
2013-6-15,78,66,56,59,55,49,95,70,37,29.99,29.88,12,3,12,0.00
2013-6-16,77,66,53,63,57,50,94,74,47,30.00,29.73,28,5,28,0.00
2013-6-17,85,67,62,65,61,56,94,82,38,29.93,29.79,12,2,12,0.00
2013-6-18,79,66,59,68,62,58,96,87,63,29.92,29.81,9,1,9,0.43
2013-6-19,73,64,56,61,54,46,96,73,39,30.19,29.91,12,2,12,0.00
2013-6-20,78,65,49,61,54,48,95,70,41,30.28,30.19,12,2,12,0.00
2013-6-21,81,71,58,65,59,54,87,67,50,30.28,30.19,12,4,12,0.00
2013-6-22,82,72,60,64,60,56,88,66,48,30.25,30.09,14,4,14,0.00
2013-6-23,87,75,62,69,64,56,89,70,46,30.17,30.03,13,4,13,0.00
2013-6-24,89,77,67,73,68,63,95,78,49,30.07,29.93,14,3,14,0.81
2013-6-25,87,75,64,74,69,63,96,84,51,30.00,29.78,14,3,14,0.08
2013-6-26,80,74,69,71,69,67,94,84,69,29.84,29.76,13,2,13,0.01
2013-6-27,81,72,67,72,68,66,95,88,70,29.83,29.58,9,2,9,0.52
2013-6-28,83,76,69,71,69,67,95,81,60,29.58,29.46,16,5,16,0.11
2013-6-29,82,74,67,69,67,62,95,80,52,29.71,29.50,13,4,13,0.00
2013-6-30,81,74,69,73,70,67,94,87,72,29.92,29.71,13,3,13,0.00
2013-7-1,75,73,70,72,70,68,95,92,86,30.00,29.91,12,2,12,0.41
2013-7-2,82,77,74,73,72,71,90,85,73,30.17,30.09,9,2,9,0.02
2013-7-3,84,77,72,73,71,69,91,81,66,30.22,30.15,10,3,15,0.00
2013-7-4,87,80,74,74,72,70,92,76,58,30.23,30.13,14,4,16,0.00
2013-7-5,88,83,73,74,71,67,90,69,50,30.20,30.08,13,6,13,0.00
2013-7-6,89,81,75,74,71,69,88,73,52,30.12,30.02,16,5,16,0.00
2013-7-7,90,81,74,76,72,68,89,76,52,30.06,29.92,12,3,12,0.00
2013-7-8,86,78,70,71,68,64,86,70,53,30.03,29.94,13,4,13,0.00
2013-7-9,84,74,66,74,69,64,94,85,63,30.08,29.99,10,1,10,0.04
2013-7-10,82,76,72,76,72,70,94,88,75,30.03,29.79,15,3,15,0.42
2013-7-11,82,75,69,72,69,63,92,82,61,29.94,29.80,9,2,9,0.01
2013-7-12,78,71,65,68,64,58,90,78,61,30.16,29.94,23,4,23,0.05
2013-7-13,75,70,64,72,67,62,94,91,84,30.30,30.16,6,1,6,0.05
2013-7-14,88,79,73,75,73,70,94,82,59,30.32,30.22,11,2,11,0.10
2013-7-15,88,80,73,74,71,68,90,75,54,30.24,30.14,10,3,10,0.00
2013-7-16,89,80,70,72,68,63,86,68,44,30.22,30.13,10,4,10,0.00
2013-7-17,90,81,71,73,70,66,90,71,46,30.21,30.06,7,2,7,0.00
2013-7-18,92,82,74,76,72,70,87,72,51,30.07,29.95,9,2,9,0.00
2013-7-19,93,84,74,74,72,70,92,70,47,29.98,29.77,17,6,17,0.00
2013-7-20,90,81,72,74,71,66,86,71,50,29.85,29.69,16,6,16,0.01
2013-7-21,84,76,68,68,65,59,88,70,45,29.98,29.85,7,1,7,0.00
2013-7-22,82,74,65,72,69,63,94,85,68,29.98,29.83,8,2,8,0.32
2013-7-23,85,76,72,74,72,70,95,88,61,29.83,29.55,13,3,13,1.60
2013-7-24,78,72,62,72,65,53,95,81,62,29.97,29.62,12,3,12,0.00
2013-7-25,67,62,58,62,56,52,92,80,72,30.08,29.97,9,2,10,0.02
2013-7-26,78,68,62,66,62,60,95,82,57,30.06,29.97,8,3,8,0.01
2013-7-27,80,76,66,69,64,60,89,67,51,30.05,29.95,10,3,10,0.00
2013-7-28,78,70,65,68,66,62,94,86,68,30.00,29.92,8,2,8,0.07
2013-7-29,82,73,65,70,65,56,95,77,50,30.09,29.96,13,3,15,0.00
2013-7-30,77,68,59,62,59,55,89,72,52,30.15,30.07,9,3,9,0.00
2013-7-31,80,69,60,66,60,56,94,76,46,30.17,30.03,9,2,9,0.00
2013-8-1,74,67,62,67,64,60,95,90,68,30.05,29.84,12,2,12,0.38
2013-8-2,80,71,64,67,64,60,96,79,52,29.89,29.79,14,4,14,0.08
2013-8-3,78,70,65,66,63,58,92,78,61,29.89,29.80,14,5,14,0.00
2013-8-4,77,66,57,63,59,54,96,79,49,29.98,29.83,15,2,15,0.02
2013-8-5,75,64,55,56,52,48,91,68,40,30.06,29.96,12,3,12,0.00
2013-8-6,77,65,52,61,56,50,95,74,49,30.14,30.06,9,1,9,0.00
2013-8-7,74,67,58,66,61,56,95,82,62,30.18,30.07,12,3,12,0.00
2013-8-8,80,73,69,71,69,66,93,85,67,30.07,29.99,13,4,13,0.00
2013-8-9,76,73,72,74,71,69,95,92,89,30.01,29.78,14,4,14,2.56
2013-8-10,80,72,61,70,64,55,96,79,49,30.06,29.85,12,3,12,0.00
2013-8-11,77,67,55,63,57,50,90,72,47,30.14,30.00,12,3,12,0.00
2013-8-12,80,70,60,65,61,56,95,76,47,30.05,29.91,8,1,8,0.00
2013-8-13,73,68,64,69,65,62,95,90,79,29.93,29.68,9,1,9,0.24
2013-8-14,72,64,56,64,56,52,95,76,53,30.03,29.74,16,5,16,0.00
2013-8-15,74,62,52,59,54,50,95,77,47,30.16,30.04,12,2,12,0.00
2013-8-16,77,64,53,63,56,51,96,78,41,30.21,30.13,8,1,10,0.00
2013-8-17,78,66,55,65,59,54,96,79,46,30.28,30.21,5,0,5,0.00
2013-8-18,76,66,59,66,61,57,95,84,59,30.27,30.12,5,0,5,0.00
2013-8-19,78,69,60,67,62,57,95,80,58,30.13,30.00,7,2,7,0.00
2013-8-20,82,71,61,68,63,57,95,78,44,30.13,30.04,10,2,10,0.00
2013-8-21,84,72,60,70,64,59,95,77,46,30.18,30.04,10,1,10,0.00
2013-8-22,80,71,64,71,67,63,94,87,67,30.06,29.85,14,3,14,0.02
2013-8-23,78,70,60,68,61,54,93,73,52,30.14,29.86,13,3,13,0.00
2013-8-24,76,64,54,61,55,51,92,73,46,30.36,30.14,8,2,8,0.00
2013-8-25,80,67,53,64,56,52,96,71,39,30.41,30.21,11,2,11,0.00
2013-8-26,76,69,63,69,63,56,94,81,65,30.22,29.91,10,2,10,0.18
2013-8-27,81,72,68,71,68,66,95,87,64,29.92,29.81,12,2,12,0.46
2013-8-28,81,69,64,73,66,62,95,90,69,29.93,29.84,8,0,8,0.00
2013-8-29,76,70,66,67,66,63,95,87,70,30.04,29.92,6,1,6,0.00
2013-8-30,81,72,66,70,66,63,93,81,59,30.04,29.85,10,2,10,0.00
2013-8-31,81,75,72,73,71,69,92,86,74,29.85,29.79,11,2,11,0.03
2013-9-1,80,75,72,74,72,68,95,90,77,29.85,29.80,12,2,12,0.08
2013-9-2,79,74,69,73,70,67,94,90,79,29.83,29.69,9,1,9,0.09
2013-9-3,74,68,60,68,64,57,95,87,66,29.88,29.73,10,2,10,0.00
2013-9-4,78,66,57,61,58,54,96,77,46,29.99,29.87,13,4,13,0.00
2013-9-5,72,64,55,62,54,45,89,70,40,30.17,29.91,13,2,13,0.00
2013-9-6,68,58,48,50,47,43,92,69,42,30.28,30.16,9,2,9,0.00
2013-9-7,76,65,48,58,52,46,96,66,42,30.16,29.90,10,2,10,0.00
2013-9-8,76,66,54,63,55,46,83,68,39,30.11,29.82,11,3,11,0.00
2013-9-9,70,59,46,56,49,44,96,73,47,30.27,30.11,10,2,10,0.00
2013-9-10,79,70,62,72,66,56,95,88,77,30.19,30.04,12,3,12,0.33
2013-9-11,91,79,71,77,72,66,95,79,53,30.10,29.96,13,2,13,0.00
2013-9-12,82,73,68,74,69,66,95,86,70,29.99,29.68,27,3,27,0.79
2013-9-13,73,66,55,68,62,50,96,86,67,29.85,29.63,9,2,9,0.03
2013-9-14,66,56,49,54,50,47,94,80,60,30.14,29.85,12,3,12,0.00
2013-9-15,68,56,45,56,49,44,96,81,46,30.22,30.09,7,1,7,0.00
2013-9-16,67,58,50,58,53,46,95,84,64,30.28,30.06,9,2,9,0.00
2013-9-17,63,51,41,48,43,40,95,76,44,30.46,30.24,9,2,9,0.00
2013-9-18,70,56,41,54,46,40,97,77,42,30.38,30.18,8,1,8,0.00
2013-9-19,75,58,45,57,51,44,96,78,41,30.21,30.06,7,1,7,0.00
2013-9-20,76,62,48,60,54,48,96,79,47,30.12,29.99,10,2,10,0.00
2013-9-21,72,65,56,66,61,54,95,88,76,30.03,29.66,15,5,15,0.40
2013-9-22,68,61,52,66,54,43,96,81,61,29.93,29.64,16,4,16,1.01
2013-9-23,61,52,43,48,44,41,94,75,55,30.07,29.92,19,3,19,0.00
2013-9-24,68,54,42,50,45,40,95,75,45,30.07,29.87,13,3,13,0.00
2013-9-25,68,57,47,56,49,45,94,78,51,29.99,29.88,10,3,10,0.00
2013-9-26,68,58,51,55,53,50,96,83,59,30.14,29.98,9,1,9,0.00
2013-9-27,62,56,49,56,52,48,96,89,73,30.30,30.13,5,0,5,0.00
2013-9-28,71,58,48,58,52,48,96,84,52,30.37,30.25,7,0,7,0.00
2013-9-29,69,57,48,58,52,47,96,85,57,30.27,30.08,5,0,5,0.00
2013-9-30,71,57,47,57,52,46,97,83,52,30.13,29.96,7,1,7,0.00
2013-10-1,75,60,49,61,55,48,96,83,52,30.03,29.89,12,1,12,0.00
2013-10-2,78,64,53,65,58,52,96,82,56,30.00,29.89,13,2,13,0.00
2013-10-3,75,63,52,59,54,48,94,75,40,30.14,30.01,9,1,9,0.00
2013-10-4,80,65,56,66,60,55,95,85,60,30.08,29.97,8,1,8,0.00
2013-10-5,75,66,61,65,62,59,93,87,70,30.10,30.02,6,0,6,0.19
2013-10-6,65,62,59,64,60,58,97,96,93,30.15,30.07,9,1,9,1.48
2013-10-7,72,64,56,68,63,54,97,95,83,30.07,29.77,22,5,22,0.63
2013-10-8,63,54,48,54,47,43,95,78,50,30.38,29.96,14,3,14,0.00
2013-10-9,62,52,43,49,46,42,96,81,53,30.48,30.34,9,1,9,0.00
2013-10-10,61,54,47,55,50,45,95,89,79,30.36,30.16,7,1,7,0.00
2013-10-11,68,60,54,60,54,46,93,82,67,30.16,30.06,8,3,8,0.00
2013-10-12,70,58,50,56,51,45,90,78,55,30.34,30.14,13,4,13,0.00
2013-10-13,62,55,48,53,49,47,96,87,66,30.42,30.34,8,2,8,0.00
2013-10-14,66,54,43,52,48,42,97,84,57,30.40,30.24,7,1,7,0.00
2013-10-15,70,58,49,57,50,42,96,78,50,30.29,30.13,10,1,10,0.00
2013-10-16,62,56,49,56,51,46,94,85,70,30.15,29.93,6,1,6,0.00
2013-10-17,74,64,59,61,58,55,95,82,52,29.93,29.68,13,3,13,0.00
2013-10-18,67,60,50,62,49,41,94,69,43,29.98,29.64,22,8,22,0.02
2013-10-19,64,54,43,53,45,41,94,73,44,30.01,29.76,26,2,26,0.16
2013-10-20,60,52,46,53,43,37,95,71,44,30.08,29.75,18,6,18,0.96
2013-10-21,64,52,41,46,41,38,92,70,40,30.18,30.00,13,3,13,0.00
2013-10-22,63,52,44,52,46,41,96,81,60,30.00,29.74,16,4,16,0.00
2013-10-23,54,45,36,41,38,34,95,77,48,29.85,29.63,10,2,10,0.00
2013-10-24,52,44,36,39,34,29,92,68,41,29.99,29.76,25,9,25,0.00
2013-10-25,51,43,37,35,33,30,84,68,51,30.23,29.99,16,5,16,0.00
2013-10-26,53,44,34,37,34,31,95,68,44,30.24,29.90,26,7,26,0.00
2013-10-27,56,48,41,37,35,31,73,60,42,30.13,29.85,18,6,18,0.00
2013-10-28,60,47,37,38,35,32,85,65,42,30.36,30.13,29,4,29,0.00
2013-10-29,51,43,37,34,31,27,76,62,44,30.45,30.36,9,1,9,0.00
2013-10-30,52,43,36,43,36,29,95,77,62,30.39,30.20,1,0,1,0.00
2013-10-31,62,51,40,59,50,39,97,95,89,30.27,29.82,17,2,17,0.26
2013-11-1,68,62,53,62,56,50,95,82,58,29.82,29.51,33,11,33,0.29
2013-11-2,65,53,46,53,46,44,95,79,48,29.80,29.61,15,2,15,0.02
2013-11-3,48,41,31,44,34,21,89,75,61,30.49,29.80,18,4,18,0.00
2013-11-4,44,35,27,24,21,18,78,57,36,30.70,30.49,8,2,8,0.00
2013-11-5,53,42,31,41,33,21,86,70,57,30.71,30.52,13,2,13,0.00
2013-11-6,59,50,40,50,45,38,97,82,62,30.52,30.08,14,4,14,0.00
2013-11-7,61,52,38,57,49,34,95,90,82,30.08,29.74,22,7,22,0.21
2013-11-8,47,40,35,34,32,28,90,73,52,30.19,29.92,23,7,23,0.00
2013-11-9,48,41,32,34,31,28,87,69,47,30.29,30.02,16,3,16,0.00
2013-11-10,57,46,42,43,37,33,89,71,49,30.02,29.78,26,8,26,0.05
2013-11-11,50,45,38,36,32,30,76,60,47,30.19,29.95,20,8,20,0.00
2013-11-12,49,33,26,39,27,19,96,77,58,30.30,29.94,17,4,19,0.11
2013-11-13,35,28,22,21,18,16,82,67,46,30.39,30.26,18,4,18,0.00
2013-11-14,50,39,28,24,21,19,75,51,30,30.26,30.12,23,5,23,0.00
2013-11-15,56,44,31,29,24,18,69,47,28,30.27,30.14,12,2,12,0.00
2013-11-16,59,48,39,44,36,25,95,66,34,30.35,30.25,10,2,10,0.00
2013-11-17,58,51,42,57,50,40,97,96,95,30.32,29.80,13,1,13,0.03
2013-11-18,61,56,46,59,43,28,96,64,39,29.80,29.58,28,14,28,0.19
2013-11-19,46,39,30,32,27,22,73,62,52,30.38,29.75,38,11,38,0.00
2013-11-20,39,31,25,22,20,18,79,64,44,30.66,30.38,15,3,15,0.00
2013-11-21,48,36,22,37,27,18,88,73,49,30.68,30.42,10,2,10,0.00
2013-11-22,52,46,41,49,44,36,97,90,80,30.42,29.90,18,3,18,0.12
2013-11-23,51,39,26,47,28,12,86,65,47,30.07,29.89,28,11,28,0.00
2013-11-24,26,22,20,17,8,1,71,55,34,30.34,29.98,34,14,34,0.00
2013-11-25,32,24,14,19,14,10,85,65,47,30.48,30.33,14,4,14,0.00
2013-11-26,37,33,30,36,25,16,98,74,56,30.36,29.93,10,2,10,0.45
2013-11-27,58,42,32,57,42,29,98,97,88,29.92,29.35,23,7,23,0.97
2013-11-28,32,27,22,28,18,13,84,66,51,30.50,29.68,30,10,30,0.02
2013-11-29,32,27,23,22,20,15,88,73,61,30.77,30.49,16,2,16,0.00
2013-11-30,31,25,16,23,16,12,90,70,45,30.82,30.43,8,1,8,0.00
2013-12-1,44,36,29,36,31,23,89,81,71,30.43,30.06,7,0,7,0.00
2013-12-2,40,34,31,36,32,29,97,92,83,30.06,29.93,4,0,4,0.00
2013-12-3,47,36,27,39,33,26,98,89,68,30.06,29.90,10,2,10,0.00
2013-12-4,49,39,32,37,33,29,92,79,62,30.21,30.06,9,2,9,0.00
2013-12-5,54,48,41,53,46,37,97,95,84,30.21,29.97,8,1,8,0.08
2013-12-6,54,42,33,53,41,32,98,95,82,30.21,29.90,15,4,15,0.41
2013-12-7,36,32,26,32,28,19,97,86,70,30.54,30.14,10,3,10,0.07
2013-12-8,30,26,21,25,21,18,95,81,74,30.62,30.47,10,1,10,0.00
2013-12-9,34,30,25,33,30,25,98,98,95,30.46,29.97,13,3,13,0.17
2013-12-10,34,30,23,33,29,19,97,94,80,30.10,29.85,20,5,20,0.10
2013-12-11,29,25,21,22,18,16,84,77,71,30.27,30.10,22,11,22,0.00
2013-12-12,24,19,14,18,12,9,88,75,59,30.35,30.14,18,6,18,0.00
2013-12-13,30,23,17,20,15,8,81,69,60,30.39,30.07,27,12,27,0.00
2013-12-14,21,18,14,20,15,12,96,90,69,30.55,29.97,24,6,24,0.25
2013-12-15,31,28,20,30,26,20,98,93,80,29.96,29.54,18,7,18,0.21
2013-12-16,28,22,14,23,14,8,83,69,55,30.25,29.81,24,10,24,0.00
2013-12-17,19,15,8,18,13,5,96,92,78,30.28,29.98,8,1,8,0.33
2013-12-18,32,26,18,25,21,17,93,83,72,30.16,29.97,18,7,18,0.00
2013-12-19,44,34,25,30,25,20,83,72,52,30.20,29.99,21,5,21,0.00
2013-12-20,51,40,32,35,32,28,88,72,51,30.15,29.95,13,2,13,0.00
2013-12-21,55,47,38,49,41,33,95,79,65,30.03,29.88,18,4,18,0.00
2013-12-22,65,60,48,61,56,46,97,87,71,29.96,29.76,28,12,28,0.02
2013-12-23,59,50,35,55,48,31,97,94,85,30.18,29.91,13,4,13,0.73
2013-12-24,35,30,22,31,24,10,92,77,59,30.35,30.11,15,5,15,0.00
2013-12-25,23,19,14,15,10,6,81,69,55,30.54,30.35,16,4,16,0.00
2013-12-26,31,26,20,27,23,15,93,85,77,30.48,30.14,15,3,15,0.01
2013-12-27,35,30,24,26,23,20,94,76,54,30.35,30.24,19,6,19,0.00
2013-12-28,47,37,26,30,27,23,92,70,50,30.30,30.05,24,3,24,0.00
2013-12-29,42,38,34,39,33,29,98,83,61,30.09,29.51,15,4,15,1.06
2013-12-30,40,30,15,36,25,10,97,83,67,30.26,29.71,20,4,20,0.00
2013-12-31,27,20,13,23,14,9,88,78,63,30.30,30.05,22,5,22,0.00
2014-1-1,28,23,18,21,15,11,90,72,58,30.42,30.29,17,5,17,0.00
2014-1-2,23,18,10,21,17,9,95,93,89,30.35,29.83,16,6,16,0.19